FALCON 9 R/B, 62260

Orbit data source: Space-Track

FALCON 9 R/B, 62260 is space debris in HEO originally from a launch on Thu, 05 Dec 2024 UTC launched from the Air Force Eastern Test Range (AFETR). Debris objects in space refer to the collection of defunct objects orbiting the Earth. Examples of debris include non-operational satellites, rocket bodies, and fragments generated from explosions, collisions, or faulty payload assembly.

Loading next visibility...
FALCON 9 R/B details
Identifier
62260, 2024-234B
Orbit
HEO
Last TLE update1 day ago
Origin
Flag of USSpaceX (US)
ManufacturerSpaceX
MissionSpacecraft
Bus & MotorF9ST2, Unknown motor
Mass~4,000 kg wet, ~4,000 kg dry
Launch date (UTC)
2024-12-05 (2 months ago)
Launch vehicleUnknown
Launch site
Air Force Eastern Test Range (AFETR)
Object type
Payload
Rocket body
Debris
Shape & HBRUnknown
Radar Cross SectionLarge (>1 m²)

Expand to show TLE details & history

TLE from 1 day ago
0 FALCON 9 R/B
1 62260U 24234B   25024.71655777  .00067759 -41558-6  17237-2 0  9995
2 62260  27.0531 120.2826 6371270 228.6388  55.9109  3.56945587  1787
Epoch: 2025-01-24T17:11Z
Definitive object data (Epoch: 2025-01-24T17:11:50.591Z)
Latitude0.00001°
Longitude98.05892°
Altitude12,203.915 km
Speed4.568 km/s
True Right ascension08h 01m 10s
True Declination0° 00' 00"
Sunlit
Object was in partial shadow at TLE epoch
Visualization TLE readout
Latitude-1.66351°
Longitude94.07712°
Altitude10,942.677 km
Speed4.897 km/s
Apparent Right ascension08h 05m 43s
Apparent Declination-11° 47' 48"
Sunlit
Object is in daylight
Visualization observer readout
Local Sidereal Time21:19:16
Azimuth35.101° NE
Elevation-57.528°
Doppler factor1
Orbital elements
Apogee altitude23,236.373 km
Perigee altitude185.988 km
Semi-major axis18,089.318 km
Eccentricity0.637127
Inclination27.0531°
RAAN120.2826°
Arg. of periapsis228.6388°
True anomaly131.39147°
Mean anomaly55.9109°
Eccentric anomaly92.38399°
Mean motion0.89209 °/min
BSTAR0.0017237
Orbital period403.55 mins
Loading maneuver chart data...
Loading historical data...
Loading historical data...
Loading historical data...
Loading historical data...
Loading historical data...
Loading historical data...
Loading historical data...
Other satellites on launch #234 in the year 2024 (2024-12-05 UTC)

FALCON 9 R/B Visibility forecast

Observer location: undefined°, undefined

Span
Click to sort rows by Start time (UTC) header in descending order
Start Az.
Max El. time (UTC)
Max El. Az.
Max El.
End time (UTC)
End Az.
203 mins2025-01-26 03:34:14.411Z97.348° ESE2025-01-26 05:41:14.411Z83.925° E17.039°2025-01-26 06:57:14.411Z75.758° E
326 mins2025-01-26 09:26:14.411Z236.554° WSW2025-01-26 14:20:14.411Z207.323° SW42.209°2025-01-26 14:52:14.411Z128.144° SE
|